Wind_Speed
53 53 53 53 54 55 55 55 55 56 57 58 59 59 60 61 62 63 63 64 66 67 68 69 70 72 73 73 74 75 75 76 77 78 79 79 79 79 79 81 82 84 85 87 88 89 90 91 91 91 91 91 92 93 94 95 96 96 97 98 100 101 101 101 102 103 106 108 109 110 110 111 113 114 116 117 119 120 121 122 123 123 124 124 122
55 55 55 56 57 58 58 58 58 59 60 61 62 62 63 64 65 65 66 67 68 69 70 71 72 73 74 75 76 76 77 77 79 80 81 81 80 80 81 82 84 85 87 89 90 91 91 91 91 92 93 94 95 96 97 97 98 98 99 101 102 102 102 103 103 105 107 110 111 112 113 113 115 116 118 119 121 121 122 122 122 122 121 120 117
57 57 57 58 59 60 61 61 61 62 62 64 65 65 66 67 68 68 69 70 71 72 73 73 74 75 76 76 77 78 79 80 82 83 83 82 81 81 82 84 85 87 88 90 91 92 92 93 93 95 96 97 97 98 98 99 99 100 101 102 103 103 104 104 106 107 109 111 114 115 116 116 117 119 120 122 122 122 122 121 120 119 117 115 112
59 59 60 60 61 62 63 63 63 64 65 66 67 68 69 70 71 71 72 73 74 75 75 75 75 76 77 78 79 80 82 84 85 85 84 83 82 83 84 85 86 87 89 90 91 92 93 94 95 97 98 98 99 99 99 100 101 102 103 104 104 105 105 106 108 109 111 113 116 118 119 120 120 121 122 123 123 122 121 119 117 115 113 111 110
61 61 61 62 63 63 64 65 65 66 67 68 70 71 72 73 73 73 74 75 76 77 76 77 78 79 79 80 81 83 85 86 86 85 83 83 83 84 85 85 86 88 89 91 92 93 95 96 97 98 99 100 100 100 101 101 103 104 105 106 107 107 107 108 110 111 113 115 117 120 121 122 123 123 124 124 123 122 120 117 114 112 111 110 109
63 62 63 63 63 64 65 66 67 68 69 70 72 73 74 74 75 76 77 78 78 78 79 79 80 81 82 83 84 86 87 86 84 83 83 83 83 84 85 86 87 89 91 93 94 96 97 98 99 100 100 101 101 101 102 103 104 106 107 108 109 109 110 111 112 113 115 117 119 121 122 123 124 125 125 124 123 120 117 114 112 110 110 110 111
63 63 64 64 65 65 66 68 69 70 71 72 73 74 75 76 77 78 79 79 80 81 81 82 83 83 85 86 88 88 87 84 82 81 82 83 84 85 86 87 89 91 92 94 95 97 98 99 100 100 101 102 102 103 104 106 107 108 110 111 111 112 112 113 114 116 117 118 120 122 123 124 125 126 125 124 122 119 115 112 111 110 110 111 112
65 65 66 66 66 67 68 69 71 72 73 74 75 76 78 79 79 80 81 82 83 84 84 84 85 87 89 89 89 88 85 82 81 82 83 85 86 87 88 89 90 91 93 94 95 96 97 99 100 101 102 103 104 106 107 109 110 111 112 113 113 114 115 116 117 118 119 120 122 123 124 125 125 126 124 122 120 117 114 112 111 112 112 112 113
67 67 68 68 69 69 70 72 73 74 75 76 77 79 80 80 81 82 83 85 86 86 86 87 88 90 90 90 88 86 84 83 83 85 86 88 88 89 90 90 91 93 94 95 96 97 99 100 102 103 104 105 107 108 110 111 112 113 114 115 115 116 117 118 120 121 122 123 124 125 125 125 125 125 123 121 119 117 114 113 113 114 114 114 114
69 70 70 71 71 72 73 74 75 76 77 79 80 81 81 82 83 85 86 87 87 88 89 90 91 91 90 88 87 85 84 85 87 89 90 90 90 90 91 92 93 95 96 97 98 100 101 102 104 105 106 107 109 111 112 113 114 115 116 116 117 119 120 121 123 124 125 125 126 126 125 124 124 123 122 120 118 117 116 116 116 116 116 115 115
71 72 72 73 73 74 76 77 78 79 80 81 82 82 83 84 85 87 87 88 89 90 91 92 92 91 90 88 85 84 85 87 90 91 92 92 92 92 93 94 95 96 97 99 100 101 102 104 106 107 108 110 112 113 114 115 116 117 117 118 119 121 123 124 125 126 127 127 127 126 125 123 122 122 121 119 118 118 118 119 118 118 117 116 116
73 74 75 75 76 77 79 80 81 82 83 83 83 84 85 86 87 88 89 90 91 92 93 93 92 91 89 87 84 84 87 90 92 93 93 94 94 94 95 95 96 97 99 101 102 103 104 106 108 110 111 112 114 115 116 117 118 119 119 120 121 123 124 125 126 127 129 128 127 125 124 122 121 120 121 120 120 120 120 120 120 119 118 117 116
75 76 77 78 79 80 81 82 83 85 85 86 86 87 88 89 89 90 91 92 92 93 93 93 92 90 88 86 85 86 89 92 94 95 96 96 97 96 96 96 97 98 101 102 104 106 108 110 111 112 113 115 116 117 118 119 120 120 121 121 122 124 125 126 127 128 129 128 125 123 122 122 120 120 122 122 122 122 122 121 120 119 119 118 117
78 78 79 80 81 82 83 84 86 87 88 89 89 89 90 90 91 92 92 92 93 94 94 93 92 90 88 87 88 90 92 95 96 97 98 98 98 97 97 97 98 101 103 104 106 108 110 112 113 114 115 117 118 119 120 121 121 122 122 123 124 125 126 126 128 129 128 126 123 122 122 122 122 122 123 123 124 124 123 122 121 120 120 118 117
80 80 81 82 83 84 86 87 89 90 90 90 91 91 91 92 93 94 93 94 94 95 95 94 92 91 90 89 90 91 94 96 97 98 99 99 98 98 99 100 101 103 105 106 108 110 112 113 114 116 117 119 120 121 122 122 122 123 123 124 124 125 126 127 128 127 125 123 122 122 122 123 124 124 125 125 125 125 124 122 122 121 120 119 118
81 82 83 84 85 87 88 90 90 90 90 91 92 93 94 95 95 95 95 95 95 95 95 94 93 92 92 92 92 92 95 96 97 98 99 99 100 100 101 102 103 105 106 108 110 111 113 114 116 117 118 120 121 122 123 123 124 124 124 125 125 125 126 126 126 125 123 122 122 123 123 124 125 125 126 126 125 124 123 121 122 122 120 118 117
84 85 86 87 88 89 90 90 90 91 92 93 94 95 96 96 96 95 95 95 95 95 95 95 94 93 93 93 93 93 95 96 97 98 99 100 100 101 103 104 106 107 109 111 112 113 114 116 117 118 119 120 122 123 124 125 125 125 126 126 125 125 125 126 125 124 123 124 124 124 124 125 125 125 125 125 125 124 123 121 120 120 119 117 116
86 86 87 88 89 90 90 90 91 92 94 95 95 95 95 95 95 95 94 95 95 95 95 94 94 93 93 93 93 94 95 96 97 99 100 101 102 103 105 107 108 110 111 112 113 115 116 117 118 119 120 121 122 123 124 125 126 126 126 125 124 124 125 125 124 124 125 125 125 125 126 126 126 126 125 125 125 125 124 122 120 119 117 115 114
87 88 89 89 90 91 91 92 93 93 94 94 94 94 94 94 94 94 95 96 96 96 95 94 93 93 93 94 94 95 96 98 99 100 101 103 104 106 108 109 111 112 113 114 115 116 117 118 119 120 121 122 123 124 125 126 126 126 125 125 124 124 125 125 125 125 125 125 125 126 126 126 127 127 126 126 126 126 126 124 123 121 118 115 113
90 91 91 92 92 92 92 93 93 93 94 94 94 95 95 95 95 96 96 97 96 96 95 95 94 94 94 95 96 97 98 100 101 102 103 105 107 108 110 112 113 114 115 115 116 117 118 119 120 121 122 123 124 125 125 125 125 125 125 125 125 125 126 126 125 125 125 125 125 125 126 126 127 127 127 126 126 126 126 125 123 122 120 116 113
91 92 92 92 92 92 93 93 93 94 94 95 95 95 96 96 96 96 96 96 96 96 96 95 95 95 96 96 98 99 100 102 103 105 106 108 109 111 113 114 115 115 116 116 117 118 119 120 121 123 123 124 124 124 124 125 125 125 125 126 126 126 126 125 125 125 125 125 125 126 126 126 126 127 127 126 126 126 125 124 123 121 119 117 114
91 91 91 91 92 92 93 93 93 94 94 94 94 94 94 95 95 95 96 96 96 96 96 96 96 97 98 98 100 101 103 104 106 108 109 111 112 114 115 115 116 116 116 117 118 119 120 121 122 123 123 124 124 125 125 126 126 126 126 126 126 125 125 125 125 125 125 126 126 126 127 127 127 127 127 126 125 125 124 123 122 120 117 115 113
91 91 91 92 92 92 92 93 93 93 93 93 93 93 93 94 94 95 95 96 96 96 97 98 98 99 100 101 103 104 106 108 109 110 112 113 114 115 116 116 116 116 117 118 119 120 121 122 122 123 124 125 125 126 126 126 126 126 126 126 125 125 125 125 125 125 126 126 127 127 127 127 127 126 125 125 124 123 121 120 119 117 115 112 111
91 91 91 91 91 92 92 92 92 92 92 93 93 93 93 94 95 95 96 97 97 98 99 101 102 103 104 105 107 108 109 111 112 113 114 115 115 116 116 116 117 118 119 120 121 121 122 123 124 124 125 125 125 125 125 125 125 125 125 125 125 125 125 126 126 126 127 127 127 128 127 127 126 125 124 123 122 120 118 116 115 113 111 109 107
90 91 91 91 92 92 92 92 93 93 94 94 95 95 95 96 96 97 98 99 101 102 104 105 106 107 108 109 110 111 112 113 114 114 115 115 116 117 118 119 120 120 121 122 123 123 124 124 125 125 125 125 125 125 125 124 124 124 124 124 125 125 125 126 127 127 127 127 127 127 127 126 126 125 124 122 120 118 116 114 112 110 109 106 103
92 92 93 93 94 95 95 95 96 96 97 97 98 98 99 99 100 101 103 104 106 108 109 110 111 112 112 113 113 114 114 114 115 115 116 117 119 120 121 122 123 124 124 124 124 124 125 125 125 125 125 125 124 124 124 124 123 123 123 124 124 125 126 127 127 128 128 127 127 126 125 125 124 123 122 121 119 117 115 113 111 109 106 104 100
97 97 98 99 99 100 100 101 101 102 102 103 103 104 104 105 106 107 108 110 111 112 113 114 114 115 115 115 115 116 116 117 118 119 120 121 122 123 124 125 125 126 126 126 125 125 125 125 125 125 124 124 124 123 123 123 123 122 123 123 124 125 126 127 128 128 128 127 126 125 124 123 122 121 120 119 117 116 114 112 110 107 104 101 97
105 104 105 105 106 107 107 108 108 109 109 109 109 110 110 111 111 112 113 114 115 116 116 116 116 116 116 117 118 119 120 121 122 123 124 125 125 126 126 126 127 127 127 127 126 126 125 125 125 124 124 123 123 123 123 123 122 122 123 123 124 125 126 127 127 127 126 126 125 124 122 121 120 119 118 117 115 114 112 110 107 103 100 97 93
112 112 112 112 112 113 113 113 114 114 114 115 115 115 116 116 116 117 117 117 117 117 117 117 118 119 120 121 122 123 124 125 126 126 127 127 127 127 128 128 128 128 128 127 126 126 125 125 124 124 123 123 123 123 123 122 123 123 123 124 124 125 125 126 125 125 124 124 123 122 120 119 118 117 116 114 113 112 110 107 103 99 96 92 89
119 118 118 117 117 117 117 117 118 118 118 119 119 119 119 119 119 119 119 118 119 119 120 121 122 123 124 125 126 126 127 127 128 128 129 128 128 128 128 128 128 128 127 127 126 125 124 124 123 123 123 123 123 123 123 123 123 124 124 125 125 125 125 125 125 124 124 123 122 121 120 118 117 116 115 113 112 110 108 105 101 97 94 90 87
123 122 121 121 120 120 120 121 121 121 121 121 121 121 121 121 121 121 122 122 123 124 124 125 126 126 127 127 128 128 128 129 129 129 129 129 129 129 129 128 128 127 126 125 125 124 124 123 123 123 123 123 123 124 124 124 124 124 125 125 124 124 124 124 124 124 123 122 121 120 119 118 117 116 115 113 111 108 105 102 99 96 93 90 87
123 123 123 123 122 122 122 122 122 122 122 122 122 122 122 123 123 124 125 125 126 126 127 127 128 128 128 128 128 129 129 129 129 129 129 129 129 129 128 127 127 126 125 124 124 123 123 123 123 123 123 123 124 124 124 124 124 123 123 123 123 123 123 123 123 123 122 121 120 119 119 118 117 115 114 112 109 106 103 99 97 94 92 90 87
122 122 122 122 123 123 123 123 123 123 123 123 123 124 124 124 125 125 125 126 126 127 128 128 128 128 128 128 128 129 129 129 129 129 129 129 128 128 127 126 125 124 123 123 122 122 122 122 122 123 123 124 124 124 124 123 121 121 120 121 121 122 122 122 121 121 120 119 119 118 117 117 115 113 111 109 105 102 99 97 94 92 90 87 85
120 120 121 121 122 122 122 122 122 122 122 123 123 124 124 125 125 125 126 126 127 127 128 128 128 128 128 128 128 128 129 128 128 128 128 127 127 125 124 123 123 122 122 121 121 121 121 122 122 123 124 124 123 123 122 120 119 118 118 119 120 120 121 120 120 119 119 118 117 117 116 115 113 111 108 104 101 98 96 94 92 90 87 85 82
120 121 121 121 121 121 121 122 122 122 122 123 124 124 125 125 125 126 126 126 126 127 127 127 127 127 127 127 127 127 127 127 127 126 126 125 124 123 122 121 121 120 121 121 121 122 122 122 123 123 123 122 121 120 119 118 117 117 117 118 119 119 119 119 118 118 117 117 116 115 114 112 110 107 104 100 97 95 93 91 89 87 85 82 80
122 122 122 122 122 122 122 122 122 123 123 124 125 125 125 124 124 124 124 125 125 125 125 126 126 126 126 126 126 126 125 125 124 124 123 122 121 120 120 120 120 120 120 121 122 122 123 123 123 122 121 120 119 118 117 116 116 116 117 117 117 118 117 117 117 116 116 115 114 113 111 109 106 103 100 97 94 92 90 88 87 85 83 81 79
123 123 123 123 123 123 123 124 124 124 124 124 123 123 123 122 122 122 122 123 123 123 124 124 124 124 124 124 123 123 123 122 122 121 120 120 120 120 120 120 120 121 121 121 122 122 122 122 121 120 118 117 117 116 116 116 116 116 116 116 116 116 116 115 115 114 113 112 111 109 107 105 102 99 96 94 92 90 88 87 85 83 81 79 77
124 124 124 124 124 124 124 123 123 123 122 122 121 121 121 122 122 122 122 122 122 123 123 123 122 122 122 121 121 120 120 120 120 120 120 120 120 120 121 121 121 121 122 122 122 121 121 119 118 117 116 116 116 116 116 115 115 116 116 116 115 115 114 114 113 112 111 110 108 105 103 101 98 96 93 91 90 88 87 85 83 81 79 77 75
124 124 123 123 123 123 123 122 122 122 121 121 121 121 121 122 122 123 122 122 122 122 121 121 120 120 120 120 120 120 120 120 121 121 121 121 121 121 122 122 122 122 122 121 120 119 118 117 116 116 116 116 116 116 115 115 115 115 115 114 114 113 112 112 111 109 108 106 104 101 99 97 95 93 91 89 88 86 84 82 80 78 76 74 72
122 122 122 122 122 122 122 122 122 122 122 122 121 121 121 121 121 122 122 122 121 121 121 121 121 121 121 121 121 121 121 122 122 122 122 122 123 123 123 123 122 122 121 120 118 117 116 115 115 115 116 116 116 115 115 115 114 114 113 113 112 111 110 109 108 106 104 102 100 98 96 94 92 90 88 87 85 84 82 80 77 75 73 71 70
121 121 121 121 121 121 121 121 122 122 122 122 122 122 122 122 122 122 122 122 122 122 122 122 122 122 122 123 123 123 123 123 124 123 123 123 123 123 123 122 121 120 119 118 116 116 115 115 115 115 116 115 115 115 114 114 113 112 112 111 110 108 107 106 105 102 100 98 96 95 93 91 89 87 86 84 83 81 79 77 74 71 69 68 68
122 122 122 122 122 122 122 122 122 122 122 123 123 123 123 123 123 123 123 123 123 123 123 123 123 124 124 124 124 124 124 124 124 124 124 124 123 123 122 121 120 118 117 116 116 115 115 115 115 115 115 115 114 113 113 112 111 110 109 108 106 105 104 102 100 98 96 95 93 92 90 89 87 85 83 82 80 78 75 73 71 69 67 67 66
122 122 122 122 122 123 123 123 123 123 123 124 124 124 124 124 124 124 124 124 124 124 124 124 125 125 125 126 126 125 125 125 124 124 124 123 122 121 120 119 118 117 116 116 116 116 115 115 115 115 114 113 113 112 111 110 108 107 106 105 103 101 99 98 96 95 93 92 91 90 88 86 84 82 80 79 77 75 73 71 69 67 66 65 64
122 122 123 123 123 124 124 124 124 124 125 125 125 125 125 125 125 125 125 125 125 125 125 125 126 126 126 126 126 125 125 124 123 123 122 121 121 120 119 118 117 117 116 116 116 115 115 114 114 113 112 111 111 110 108 107 105 104 103 101 99 97 95 93 92 91 90 90 89 87 86 84 82 79 77 76 74 73 71 69 68 66 65 64 63
122 123 123 124 124 125 125 125 125 125 125 126 126 126 126 126 126 126 126 126 126 126 126 126 126 126 125 125 124 124 123 122 122 121 121 120 119 119 118 118 118 117 116 116 115 114 113 113 112 111 110 109 108 106 105 103 101 100 99 97 95 93 91 90 89 89 88 88 87 86 84 81 79 77 75 74 72 71 69 68 67 65 64 62 61
123 123 124 124 125 125 125 125 126 126 126 126 126 127 127 127 127 127 127 127 127 126 126 126 125 124 124 123 122 122 121 121 120 120 120 119 119 118 118 117 117 116 115 114 113 113 112 111 110 109 108 106 104 103 101 99 97 96 95 93 91 90 89 87 87 86 86 86 85 84 82 79 76 74 73 72 71 69 67 66 65 64 62 61 59
123 123 124 124 125 125 125 126 126 126 126 127 127 127 127 127 127 127 127 126 126 125 125 124 123 122 122 121 120 120 120 120 120 119 119 118 118 117 117 116 115 114 113 112 111 110 109 108 107 106 105 103 101 99 97 95 93 92 91 89 88 87 86 85 85 84 84 83 83 81 79 77 75 73 72 71 69 67 65 64 63 62 60 59 57
122 123 123 124 124 125 125 126 126 126 126 126 126 126 126 126 126 125 125 124 124 123 122 122 121 121 120 120 120 120 119 119 119 118 118 117 116 116 115 114 113 112 111 110 108 107 106 105 104 102 101 99 98 95 93 91 89 88 87 86 86 85 85 84 83 82 81 80 80 79 78 76 74 72 70 69 67 65 63 61 60 59 58 57 55
121 121 122 123 123 123 124 124 124 124 124 124 124 123 123 123 123 122 122 122 122 121 121 121 120 120 120 120 120 119 119 119 118 117 116 116 115 113 112 111 110 109 108 106 105 103 102 101 100 99 97 96 94 92 90 88 86 85 84 84 84 84 83 82 81 79 78 77 77 77 76 74 72 70 68 67 65 63 61 59 57 57 56 56 54
118 119 119 120 120 120 120 120 120 120 120 120 120 120 120 120 120 120 121 121 121 120 120 120 120 120 120 120 119 119 118 118 117 116 115 113 112 110 109 107 106 105 103 102 101 100 99 97 96 95 94 93 91 90 88 86 84 83 82 82 82 82 81 79 78 77 76 75 75 75 74 73 70 68 66 65 63 61 59 57 55 54 54 54 53
115 115 115 116 116 116 116 117 117 117 117 118 118 119 119 119 119 120 120 120 120 120 120 120 120 119 119 119 118 117 117 116 114 113 112 110 108 107 105 103 102 101 99 98 97 96 95 94 93 92 91 90 88 87 86 84 83 82 81 80 80 79 78 77 76 75 74 73 73 73 72 71 68 65 64 63 61 59 57 55 53 52 52 52 51
Wind_Direction
286 285 284 284 283 283 284 285 286 287 289 290 291 292 293 294 295 296 296 296 296 297 297 297 297 298 298 298 298 298 298 298 299 299 299 298 297 296 296 296 296 297 297 297 297 297 297 296 296 296 296 296 296 296 296 296 296 296 295 295 294 294 294 294 295 295 295 295 296 296 297 297 298 298 298 298 298 298 299 299 300 300 300 299 299
287 286 285 284 284 285 286 286 287 289 290 291 292 293 294 294 295 295 295 296 296 296 296 297 297 297 298 298 297 296 296 296 297 298 298 297 296 296 295 295 295 296 296 296 296 296 296 296 296 296 295 295 295 295 295 295 295 295 294 294 294 294 295 296 296 297 297 298 298 299 299 299 299 299 299 298 299 299 300 301 301 301 300 299 300
287 287 286 285 285 285 286 286 287 289 290 291 292 293 294 294 294 294 294 295 296 296 296 296 297 297 297 297 296 295 295 295 296 296 296 295 295 294 294 294 294 295 295 296 296 296 296 296 295 294 294 294 294 294 295 295 295 294 294 294 295 296 297 298 299 299 300 300 300 300 300 300 300 299 299 299 300 301 302 302 302 301 301 301 302
286 286 285 285 285 285 285 286 287 288 289 290 291 292 293 293 293 293 293 294 295 296 296 296 296 296 297 296 296 295 295 295 296 295 294 293 292 292 293 294 294 295 295 296 296 296 295 294 294 293 294 294 294 294 295 295 295 295 295 296 297 298 299 300 300 301 301 301 301 301 301 301 301 301 301 301 302 303 303 303 303 302 303 303 304
283 284 284 284 284 285 285 286 287 288 288 289 290 291 292 292 292 293 293 294 295 295 295 295 295 296 296 296 296 296 296 295 295 294 292 291 291 292 293 293 294 295 295 294 294 294 293 293 293 294 294 294 294 295 295 296 296 296 297 298 299 300 301 301 301 301 301 301 301 302 302 302 303 303 303 303 303 304 304 304 304 304 304 304 305
282 283 284 284 284 284 285 285 286 286 287 288 289 290 291 291 291 292 292 293 294 294 294 295 295 295 296 296 296 296 296 294 293 292 291 291 291 291 292 293 293 293 293 293 293 293 294 294 294 294 295 295 295 296 297 297 297 297 298 299 300 301 301 301 301 302 302 302 302 302 303 304 304 304 304 304 305 305 304 305 305 306 306 306 307
282 283 285 285 285 284 284 284 285 285 286 288 289 289 290 290 290 291 292 293 293 294 294 295 295 295 296 296 296 296 294 293 291 291 291 291 291 292 292 293 293 293 293 294 294 294 294 294 295 295 295 296 296 297 297 297 298 298 299 300 301 301 302 302 302 302 302 302 303 304 304 305 305 305 305 305 305 305 305 306 307 307 307 308 309
283 284 284 284 284 284 284 284 285 285 286 288 288 289 289 289 290 291 292 293 293 294 294 294 295 295 296 296 295 294 292 290 290 291 291 291 292 292 293 293 294 294 295 295 295 295 295 295 296 296 296 297 298 298 298 298 299 300 300 301 302 302 303 303 303 303 303 303 304 305 305 305 306 306 306 306 306 306 307 308 309 309 309 309 309
283 283 283 283 283 284 284 284 284 285 286 287 287 287 288 288 290 291 292 293 293 294 294 294 295 296 296 295 294 292 290 289 289 291 291 292 292 293 293 294 295 295 295 296 295 295 295 296 296 297 297 298 299 299 300 300 301 301 302 302 303 303 304 304 304 304 304 304 305 305 306 306 307 307 307 307 307 308 309 309 309 310 310 310 310
282 281 282 282 283 283 283 284 284 284 285 286 286 286 287 288 289 291 292 293 293 293 294 295 296 296 296 295 293 291 289 289 290 291 292 293 293 293 293 294 295 295 296 296 296 296 297 297 298 299 299 300 300 301 301 301 302 302 303 304 304 305 305 305 305 305 305 305 306 306 307 307 307 307 307 307 308 309 310 310 310 310 310 310 310
281 281 281 282 282 283 283 283 284 284 284 285 285 286 286 288 289 291 292 292 293 294 295 296 296 296 295 293 291 289 288 289 291 292 293 293 293 293 294 295 295 296 297 297 297 298 299 300 300 301 301 301 301 302 302 303 303 304 304 305 305 305 305 305 305 305 305 305 306 306 307 308 307 308 308 309 309 310 310 310 310 310 310 310 310
280 281 281 281 282 282 282 283 283 284 284 285 285 285 286 288 289 290 292 293 293 294 295 295 296 296 294 292 290 289 288 289 291 292 293 292 293 293 295 296 296 297 298 298 299 300 300 301 301 301 302 302 302 303 303 303 303 304 304 305 306 306 305 306 306 305 305 305 306 307 308 308 308 309 310 310 310 310 310 310 309 310 310 310 309
279 279 279 280 280 280 281 282 282 283 284 284 285 285 286 288 289 290 292 292 293 293 294 295 295 294 292 290 288 287 288 289 290 291 291 292 293 294 295 296 297 298 299 299 301 302 302 302 303 303 303 303 303 303 303 303 304 304 305 305 305 305 305 306 306 305 305 305 306 308 308 309 309 310 310 310 310 310 309 309 309 309 309 309 309
277 277 277 278 278 279 280 281 282 283 284 284 285 285 286 288 289 290 291 291 291 292 292 293 292 292 290 289 288 287 288 288 289 290 291 292 294 295 295 296 296 297 298 300 301 302 303 303 304 304 304 304 303 303 303 303 304 304 305 305 305 305 305 306 305 305 305 306 307 308 309 310 310 310 310 310 309 309 309 309 309 309 309 309 310
275 275 276 277 278 279 280 280 281 282 283 284 284 285 286 287 289 289 290 289 290 290 290 291 291 290 289 289 288 288 288 289 290 291 292 293 294 294 295 296 296 297 299 300 302 302 303 303 304 304 304 304 304 303 303 303 304 304 304 304 304 305 305 305 304 304 305 307 308 310 310 310 310 310 309 309 309 308 308 308 309 309 309 309 310
275 275 276 277 278 279 279 280 281 282 282 283 284 285 286 287 288 288 288 288 288 288 289 289 289 289 288 288 288 288 289 290 291 292 292 293 294 295 296 297 298 299 301 302 302 303 303 303 304 304 304 304 303 303 303 303 303 303 304 304 304 305 305 305 304 305 307 308 309 310 310 310 309 309 308 308 307 307 307 308 308 308 308 309 309
275 275 276 276 277 278 279 280 281 281 282 283 284 285 286 286 286 286 286 286 287 287 288 288 288 288 288 288 288 288 289 290 292 293 293 295 296 297 299 300 301 302 302 303 303 303 303 303 303 303 303 303 303 303 303 303 303 304 304 304 304 305 305 305 306 308 309 309 309 309 309 308 308 307 307 307 307 307 307 307 307 307 308 308 308
274 274 274 275 277 278 278 279 280 281 282 283 284 284 284 284 284 284 285 285 286 287 287 287 287 287 287 288 288 289 290 291 292 293 295 296 298 299 301 302 302 303 303 303 303 303 303 303 302 303 303 303 303 303 303 303 304 304 304 304 305 306 306 307 308 309 309 309 309 308 308 307 307 306 307 307 307 307 307 307 308 307 308 308 308
273 273 274 275 276 277 278 278 279 280 281 282 282 282 283 283 283 283 284 285 286 286 287 286 286 287 287 288 289 290 291 292 293 294 296 297 299 300 302 303 303 303 303 303 303 302 302 302 302 303 303 303 304 304 304 303 304 304 304 305 306 307 307 308 308 308 308 307 307 307 307 307 306 307 307 307 307 308 308 308 308 308 308 308 308
273 274 275 275 276 276 277 278 278 279 279 280 280 281 281 281 282 282 283 284 285 285 286 286 286 287 288 289 290 291 292 293 295 296 297 299 300 302 302 303 303 303 303 303 302 302 302 303 303 304 304 304 304 303 304 304 304 305 306 306 307 307 307 307 307 306 306 306 306 306 306 306 306 306 307 307 307 307 308 308 308 308 308 309 309
274 274 275 275 275 276 276 277 277 278 278 279 280 280 281 281 282 282 283 284 284 285 285 286 287 288 289 290 291 293 294 296 297 298 299 301 302 303 303 303 303 303 303 303 303 303 303 304 304 304 304 304 304 304 304 305 305 306 306 306 306 306 306 306 306 306 305 305 305 305 306 306 306 306 306 307 307 307 307 307 308 308 308 308 309
274 274 274 274 275 275 276 276 277 277 278 278 279 280 280 281 282 282 283 283 284 285 286 287 288 289 291 292 294 295 297 298 299 300 301 302 302 303 303 302 302 303 303 303 303 304 304 304 304 304 304 304 305 305 305 306 306 306 305 305 305 305 305 305 305 305 305 305 305 305 305 305 305 306 306 306 306 306 307 307 307 307 307 308 308
274 274 274 274 275 275 276 276 276 277 277 278 279 280 281 281 282 282 283 284 285 286 288 289 291 292 294 295 296 297 299 299 300 301 301 302 302 302 302 302 302 303 303 303 304 304 304 304 304 305 305 305 305 305 305 304 304 304 304 304 304 304 305 305 305 305 305 305 305 305 305 305 305 305 305 305 305 306 306 305 306 306 307 307 307
273 273 274 274 275 275 276 277 277 278 279 280 281 282 282 282 283 284 285 286 288 289 291 293 294 295 296 297 298 299 299 300 300 301 301 301 301 302 302 303 303 304 304 304 304 304 304 305 305 305 304 304 304 303 303 303 303 303 303 304 304 304 305 305 305 305 304 304 304 304 304 304 305 305 305 305 305 305 305 305 305 306 306 307 307
274 274 275 276 277 278 278 279 280 281 282 283 284 285 285 285 286 287 288 290 291 293 294 295 296 297 297 298 298 299 299 299 299 300 300 301 302 303 303 304 304 304 304 304 304 304 304 304 304 304 303 303 303 302 302 302 303 303 303 304 304 304 304 304 304 304 304 304 304 304 304 304 304 305 304 304 304 304 305 305 305 306 306 306 307
278 278 279 280 281 282 283 284 284 285 286 287 288 289 289 290 291 291 292 293 294 295 296 296 297 297 297 298 298 298 299 299 300 301 302 303 304 304 304 304 304 304 304 304 304 304 304 304 303 303 302 302 302 302 302 302 302 303 303 303 304 304 304 304 303 303 303 303 303 304 304 304 304 304 304 304 305 305 305 306 306 306 306 306 307
283 283 284 285 286 287 287 288 289 289 290 291 292 292 293 293 294 294 294 295 295 296 296 296 296 297 297 298 299 299 300 301 302 302 303 304 304 304 304 304 304 303 303 304 304 303 303 302 302 301 301 301 301 301 301 302 302 303 303 303 303 303 303 303 303 303 303 303 303 303 303 303 304 304 304 304 305 305 305 306 306 306 306 306 306
286 287 288 289 289 290 290 291 292 292 293 293 293 294 294 294 294 294 294 294 295 295 295 295 296 297 298 299 300 301 302 302 302 303 303 303 303 303 303 303 303 303 303 303 302 302 301 301 300 300 300 300 300 301 301 302 302 302 303 303 303 303 303 302 302 302 302 302 303 303 303 303 303 304 304 304 304 305 305 305 305 306 306 305 305
287 288 289 289 290 290 291 291 292 292 292 293 293 293 293 293 293 293 294 294 295 295 296 297 298 299 300 300 301 301 301 301 302 302 302 302 302 302 302 302 302 302 302 301 301 300 300 300 300 300 300 300 301 301 301 302 302 302 302 302 302 302 302 302 302 302 302 302 302 303 303 303 303 304 304 304 305 305 305 305 305 305 305 304 304
288 288 288 289 289 289 290 290 290 291 291 291 291 292 292 293 293 294 295 296 297 297 298 299 299 299 300 300 300 300 300 300 300 300 300 300 300 300 301 301 301 300 300 299 299 299 299 299 299 300 300 300 301 301 301 302 302 303 303 303 302 302 302 302 302 302 302 302 303 303 303 304 304 304 305 305 305 305 305 306 306 305 305 304 304
287 287 287 287 288 288 288 289 289 290 290 291 292 292 293 294 295 296 297 297 298 298 298 298 298 298 298 298 298 298 298 298 298 299 299 299 299 299 299 299 299 298 298 298 298 298 299 299 299 300 300 300 301 301 302 302 303 303 303 302 302 302 302 302 302 302 302 303 303 304 304 304 304 305 305 305 305 306 306 306 306 306 305 305 304
285 286 286 287 287 288 288 289 290 291 292 293 294 294 295 295 296 296 296 296 296 296 296 296 296 296 296 296 296 296 296 297 297 297 297 298 298 298 298 297 297 297 297 297 298 298 299 299 299 300 300 301 301 301 302 302 302 302 302 302 302 302 301 301 301 302 302 303 303 303 304 304 304 305 305 305 305 305 306 306 306 306 305 305 305
285 286 287 288 288 289 290 291 291 292 292 293 293 293 293 293 293 293 293 293 293 293 293 293 293 294 294 294 295 295 295 295 296 296 296 296 296 296 296 296 296 296 297 297 298 298 298 299 299 300 300 301 301 301 301 301 301 301 301 301 301 301 301 301 301 302 302 302 303 303 303 303 304 304 304 304 305 305 305 305 305 305 305 305 305
286 286 287 287 288 288 288 289 289 290 290 290 290 290 290 290 290 290 290 290 290 290 291 291 292 292 293 293 293 294 294 294 295 295 295 295 294 295 295 295 296 296 297 297 298 298 299 299 300 300 300 300 300 300 300 301 301 301 301 300 300 300 300 300 301 301 302 302 302 302 303 303 303 303 304 304 304 305 305 305 305 304 304 304 304
285 285 285 285 285 286 286 286 287 287 287 287 287 287 287 287 287 287 288 288 289 289 290 291 291 292 292 292 293 293 293 293 293 293 293 293 294 294 295 295 296 297 297 298 298 299 299 300 300 300 300 300 300 300 300 300 300 300 300 300 299 300 300 300 301 301 301 302 302 302 302 303 303 303 303 304 304 304 305 304 304 304 304 304 304
284 284 284 284 285 285 285 286 286 286 285 285 285 285 285 286 286 287 287 288 289 289 290 290 291 291 291 292 292 292 292 292 292 292 293 293 294 295 296 296 297 298 298 298 299 299 299 299 299 299 299 299 300 300 300 300 300 300 299 299 299 299 300 300 301 301 301 301 302 302 302 302 302 303 303 304 304 304 304 304 304 304 304 304 304
283 283 284 284 284 285 285 285 284 284 284 284 284 285 286 286 287 287 288 289 289 289 290 290 290 290 290 291 291 291 291 292 292 293 294 294 295 296 297 297 298 298 298 299 299 299 299 299 299 299 299 299 299 299 299 299 299 299 299 299 299 300 300 300 301 301 301 301 302 302 302 302 302 303 304 304 304 305 304 304 304 304 304 304 303
282 282 283 283 283 283 283 283 284 284 284 285 286 287 287 288 288 289 289 289 289 289 289 289 289 290 290 290 291 291 292 293 293 294 295 296 296 297 297 298 298 298 299 299 299 299 298 298 298 299 299 299 299 299 299 299 299 299 299 299 299 300 300 300 300 301 301 301 302 302 302 302 303 303 304 304 304 304 304 304 304 304 304 303 303
280 281 281 282 282 283 284 284 285 285 286 286 287 287 287 287 288 288 288 288 289 289 289 289 290 291 291 292 292 293 294 294 295 295 296 296 297 297 298 298 298 298 298 298 298 298 298 298 298 299 299 299 299 299 299 299 299 299 299 299 300 300 300 300 300 301 301 301 301 301 302 302 303 303 304 304 304 304 304 303 303 303 303 303 302
280 281 281 282 283 283 284 284 285 285 285 286 286 286 286 287 287 287 288 288 289 290 290 291 291 292 292 293 294 294 295 295 295 296 296 297 297 297 298 298 298 298 298 298 298 298 298 298 298 299 299 298 298 298 298 298 298 299 299 299 300 300 300 300 300 301 301 301 301 301 301 302 303 303 304 304 303 303 303 303 303 303 303 302 302
281 281 282 282 282 283 283 283 284 284 285 285 286 286 287 287 288 288 289 289 290 290 291 291 292 292 293 294 294 294 295 295 296 296 296 297 297 297 297 297 297 297 297 297 297 298 298 298 298 298 298 298 298 298 298 298 298 299 299 299 299 300 300 300 300 300 300 301 301 301 301 302 303 303 304 303 303 303 303 303 303 303 303 302 301
280 281 281 282 282 282 283 283 284 284 285 286 286 287 287 288 288 288 289 289 290 290 291 292 292 293 293 294 294 294 295 295 296 296 296 296 297 297 297 297 297 297 297 297 298 298 298 298 298 298 297 297 297 297 298 298 298 299 299 299 299 299 299 300 300 300 300 300 301 301 301 302 303 303 303 303 303 303 303 303 303 303 302 302 301
280 280 281 281 282 282 283 283 284 284 285 285 286 286 286 287 288 288 289 289 290 290 291 292 292 293 293 293 294 294 295 295 295 296 296 296 296 296 296 296 296 297 297 297 297 298 298 297 297 297 297 297 297 297 298 298 298 298 298 298 299 299 299 299 299 300 300 300 301 301 301 302 302 303 303 303 302 302 303 303 303 303 302 301 300
279 279 280 280 281 282 282 283 283 284 284 285 285 286 286 287 288 288 289 289 290 291 291 292 292 292 293 293 293 294 294 295 295 295 295 295 295 295 296 296 296 297 297 297 297 297 297 297 296 296 296 297 297 297 297 298 298 298 298 298 298 299 299 299 299 300 300 300 300 301 301 302 302 303 303 302 302 302 303 303 303 302 302 301 300
278 279 279 280 280 281 282 282 283 283 284 285 285 286 287 287 288 289 289 289 290 290 291 291 291 292 292 292 293 293 294 294 294 294 294 295 295 295 296 296 296 297 297 297 297 297 296 296 296 296 296 296 297 297 297 297 297 298 298 298 298 298 299 299 299 300 300 300 300 301 301 302 302 302 302 302 302 302 303 303 302 302 301 300 299
278 278 279 280 280 281 282 282 283 284 284 285 286 286 287 287 288 288 289 289 289 290 290 290 291 291 291 292 292 293 293 293 293 294 294 294 295 295 296 296 296 296 296 296 296 296 296 296 296 296 296 296 296 296 297 297 297 298 298 298 298 298 299 299 299 300 300 300 300 301 301 301 302 302 302 302 302 302 302 302 302 301 300 299 299
278 278 279 280 280 281 282 282 283 284 284 285 286 286 286 287 287 288 288 288 289 289 289 290 290 291 291 291 292 292 292 293 293 293 294 294 295 295 295 295 295 296 296 295 295 296 296 296 296 296 296 296 296 296 297 297 298 298 298 298 298 299 299 299 300 300 300 300 300 300 301 301 302 302 302 302 302 302 302 301 301 300 299 299 298
277 277 278 279 279 280 281 281 282 283 283 284 284 285 285 286 286 287 287 288 288 289 289 289 290 290 291 291 292 292 292 292 293 293 294 294 294 294 295 295 295 295 295 295 295 295 295 295 295 295 296 296 296 296 297 297 298 298 298 298 299 299 299 299 299 299 299 299 300 300 300 301 301 301 301 301 301 301 301 301 300 299 299 298 298
275 276 276 277 278 279 279 280 281 281 282 283 283 284 284 285 286 286 287 287 288 288 289 289 290 290 291 291 291 292 292 293 293 293 294 294 294 294 294 294 294 294 295 295 295 295 295 295 295 295 295 296 296 297 297 298 298 298 298 299 299 299 299 299 299 299 299 299 299 299 300 300 301 301 301 301 301 301 300 300 299 299 298 298 298
275 275 276 277 277 278 279 280 280 281 282 282 283 284 284 285 285 286 287 287 288 289 289 290 290 290 291 291 292 292 293 293 293 293 293 294 294 294 294 294 294 294 295 295 294 294 294 295 295 295 296 296 297 298 298 298 298 299 299 299 299 299 299 298 299 299 299 299 299 299 299 299 300 300 300 300 300 300 300 299 299 299 298 298 297
276 276 277 277 278 279 279 280 281 281 282 283 283 284 284 285 286 286 287 288 288 289 289 290 290 290 291 292 292 293 293 293 293 293 293 293 293 294 294 294 294 294 294 294 294 294 294 295 295 296 296 297 297 298 298 299 299 299 299 299 298 298 298 298 298 298 298 299 298 298 299 299 299 300 300 300 299 299 299 299 298 298 297 297 297
Height
10667 10665 10664 10662 10660 10659 10658 10656 10655 10653 10650 10648 10646 10643 10641 10639 10637 10635 10632 10629 10626 10623 10620 10617 10613 10610 10607 10604 10601 10597 10594 10591 10587 10584 10580 10576 10572 10568 10565 10561 10557 10553 10549 10545 10541 10537 10533 10528 10524 10519 10515 10510 10506 10501 10496 10492 10488 10483 10478 10472 10467 10462 10457 10453 10448 10440 10430 10421 10415 10411 10406 10399 10392 10385 10378 10372 10364 10357 10350 10342 10334 10326 10315 10304 10295
10660 10659 10657 10655 10653 10651 10650 10648 10646 10645 10642 10640 10638 10636 10634 10632 10629 10627 10623 10620 10617 10615 10612 10608 10605 10601 10598 10595 10592 10588 10585 10582 10578 10575 10571 10567 10563 10559 10555 10551 10548 10544 10540 10536 10531 10527 10522 10518 10513 10509 10504 10499 10495 10490 10485 10481 10477 10472 10466 10460 10455 10450 10446 10441 10435 10427 10418 10408 10399 10394 10390 10384 10377 10370 10363 10355 10348 10342 10335 10327 10319 10310 10299 10289 10281
10653 10652 10650 10648 10646 10644 10642 10640 10638 10637 10634 10632 10630 10627 10625 10623 10621 10618 10615 10612 10609 10606 10603 10600 10596 10593 10589 10586 10583 10579 10576 10572 10569 10565 10561 10558 10554 10550 10546 10542 10538 10534 10530 10526 10521 10516 10512 10507 10502 10497 10492 10488 10483 10478 10474 10469 10464 10458 10453 10447 10442 10438 10434 10429 10422 10414 10406 10396 10385 10377 10372 10367 10361 10354 10346 10339 10331 10325 10319 10311 10303 10293 10283 10274 10265
10646 10645 10643 10641 10639 10636 10634 10632 10630 10629 10626 10624 10622 10619 10617 10614 10612 10609 10606 10603 10600 10597 10594 10591 10587 10584 10580 10577 10574 10570 10567 10563 10559 10556 10552 10548 10545 10541 10537 10533 10529 10524 10520 10515 10510 10506 10501 10496 10491 10486 10481 10476 10471 10467 10462 10457 10451 10445 10439 10434 10429 10425 10421 10415 10408 10400 10393 10383 10371 10362 10354 10349 10343 10336 10329 10322 10316 10309 10302 10294 10286 10276 10267 10258 10250
10638 10637 10635 10633 10631 10629 10626 10624 10622 10620 10618 10616 10613 10611 10608 10606 10603 10600 10597 10594 10591 10589 10585 10582 10578 10575 10571 10568 10564 10561 10557 10553 10550 10546 10542 10539 10535 10531 10527 10524 10520 10515 10510 10505 10500 10495 10490 10484 10479 10474 10469 10464 10459 10454 10449 10443 10437 10431 10425 10420 10416 10412 10407 10401 10394 10386 10379 10369 10359 10348 10339 10332 10326 10318 10311 10305 10300 10294 10286 10277 10269 10260 10251 10243 10235
10630 10629 10627 10625 10623 10621 10618 10616 10614 10612 10610 10607 10605 10602 10599 10597 10594 10591 10588 10586 10583 10579 10576 10573 10570 10566 10562 10559 10555 10551 10547 10543 10540 10536 10532 10529 10525 10522 10518 10515 10510 10505 10500 10494 10490 10484 10478 10472 10467 10462 10456 10451 10446 10441 10436 10430 10423 10417 10411 10406 10402 10398 10393 10386 10379 10372 10364 10355 10345 10334 10325 10317 10310 10302 10295 10288 10283 10276 10269 10262 10254 10245 10236 10228 10219
10621 10620 10618 10616 10614 10612 10610 10608 10605 10603 10600 10598 10596 10593 10590 10587 10585 10582 10579 10576 10573 10570 10567 10564 10560 10556 10552 10549 10545 10541 10537 10533 10529 10525 10522 10518 10515 10512 10508 10504 10500 10495 10489 10484 10479 10473 10466 10460 10455 10449 10443 10438 10433 10427 10421 10415 10409 10403 10397 10392 10388 10383 10377 10371 10364 10356 10348 10340 10331 10321 10312 10304 10295 10286 10279 10273 10265 10258 10252 10246 10239 10230 10222 10215 10206
10613 10611 10609 10607 10605 10603 10601 10599 10596 10593 10591 10589 10586 10583 10580 10577 10575 10572 10569 10566 10563 10560 10557 10554 10550 10546 10542 10538 10534 10530 10526 10522 10518 10514 10511 10507 10504 10501 10498 10493 10489 10484 10478 10473 10467 10461 10454 10448 10443 10437 10430 10425 10419 10413 10406 10401 10395 10389 10383 10378 10373 10367 10361 10354 10347 10338 10331 10324 10315 10306 10299 10292 10281 10271 10264 10257 10247 10241 10236 10230 10223 10215 10207 10201 10194
10604 10602 10599 10597 10595 10594 10591 10589 10587 10584 10582 10579 10576 10574 10571 10568 10565 10562 10558 10555 10552 10549 10546 10543 10540 10536 10531 10527 10523 10519 10515 10511 10507 10503 10500 10496 10493 10490 10487 10482 10478 10472 10467 10461 10455 10448 10442 10436 10430 10423 10417 10412 10405 10398 10392 10386 10381 10375 10369 10363 10357 10351 10344 10336 10328 10320 10313 10307 10299 10291 10285 10279 10267 10256 10249 10240 10230 10224 10219 10212 10207 10201 10193 10188 10181
10593 10591 10589 10587 10585 10583 10580 10578 10576 10575 10572 10569 10566 10564 10561 10558 10555 10551 10548 10545 10542 10538 10536 10532 10529 10524 10520 10516 10512 10508 10504 10500 10496 10492 10488 10485 10482 10479 10475 10471 10466 10461 10455 10448 10442 10435 10429 10423 10416 10409 10404 10399 10392 10385 10378 10372 10366 10360 10354 10348 10342 10334 10326 10318 10310 10303 10296 10290 10282 10275 10270 10265 10253 10241 10233 10224 10214 10208 10203 10195 10191 10186 10179 10174 10168
10583 10581 10579 10577 10575 10573 10570 10568 10566 10563 10561 10559 10556 10553 10551 10548 10545 10541 10538 10534 10531 10527 10524 10521 10517 10513 10509 10505 10501 10498 10493 10488 10484 10481 10477 10474 10470 10467 10464 10460 10454 10448 10442 10435 10428 10422 10417 10410 10403 10396 10390 10384 10377 10371 10364 10357 10352 10346 10340 10334 10327 10318 10309 10301 10295 10287 10278 10272 10266 10260 10255 10248 10238 10226 10215 10208 10200 10193 10187 10181 10175 10170 10164 10159 10154
10573 10571 10569 10567 10565 10562 10560 10557 10555 10552 10550 10548 10546 10543 10540 10537 10534 10531 10527 10524 10520 10516 10512 10509 10506 10503 10498 10494 10490 10487 10482 10477 10473 10470 10466 10462 10458 10456 10452 10448 10442 10436 10429 10422 10415 10409 10403 10397 10389 10383 10376 10369 10362 10356 10350 10343 10338 10332 10326 10320 10313 10304 10295 10287 10279 10270 10261 10255 10252 10248 10239 10229 10222 10212 10199 10192 10187 10180 10174 10168 10161 10156 10150 10145 10139
10563 10561 10559 10557 10555 10553 10550 10548 10544 10541 10539 10536 10535 10533 10529 10526 10523 10520 10517 10514 10510 10506 10502 10498 10495 10492 10488 10483 10479 10475 10471 10466 10461 10458 10454 10451 10447 10445 10441 10436 10431 10424 10416 10409 10402 10395 10389 10382 10375 10369 10362 10354 10348 10341 10335 10329 10324 10318 10313 10306 10299 10291 10281 10273 10264 10253 10245 10240 10238 10234 10223 10210 10204 10198 10186 10178 10174 10167 10160 10155 10148 10143 10137 10131 10126
10553 10551 10550 10548 10545 10543 10540 10537 10534 10530 10527 10525 10523 10521 10518 10515 10512 10509 10506 10503 10499 10496 10491 10488 10485 10481 10478 10473 10469 10464 10458 10453 10450 10446 10442 10439 10436 10433 10430 10425 10419 10411 10404 10397 10391 10383 10375 10369 10362 10356 10348 10341 10333 10326 10320 10315 10310 10304 10299 10292 10285 10277 10268 10260 10249 10238 10231 10227 10222 10216 10207 10195 10188 10183 10174 10166 10161 10153 10145 10140 10135 10128 10120 10115 10111
10542 10540 10538 10537 10534 10532 10530 10526 10523 10520 10516 10514 10511 10509 10507 10504 10501 10498 10495 10492 10489 10485 10481 10478 10475 10471 10467 10462 10458 10453 10446 10441 10438 10435 10430 10427 10424 10421 10417 10412 10406 10399 10392 10386 10379 10371 10364 10356 10349 10342 10335 10327 10319 10312 10305 10301 10296 10290 10284 10277 10270 10262 10255 10245 10234 10225 10219 10213 10206 10199 10192 10183 10174 10167 10160 10152 10146 10140 10132 10127 10121 10112 10105 10101 10097
10530 10529 10527 10525 10523 10521 10518 10515 10512 10509 10506 10503 10500 10497 10495 10492 10489 10486 10484 10481 10478 10475 10471 10467 10463 10460 10455 10451 10447 10442 10435 10430 10427 10423 10418 10415 10412 10408 10404 10398 10392 10386 10379 10372 10365 10358 10351 10343 10336 10329 10322 10315 10306 10299 10292 10286 10281 10274 10268 10261 10254 10248 10240 10228 10217 10212 10206 10199 10193 10186 10180 10173 10163 10156 10150 10141 10134 10127 10121 10117 10110 10099 10093 10090 10084
10519 10517 10515 10513 10511 10509 10506 10504 10501 10498 10495 10492 10489 10486 10483 10480 10477 10475 10472 10470 10467 10463 10460 10456 10452 10448 10444 10440 10435 10431 10425 10420 10415 10410 10406 10402 10398 10394 10389 10384 10378 10372 10365 10358 10351 10345 10337 10329 10322 10316 10310 10303 10294 10286 10278 10270 10264 10258 10251 10245 10240 10234 10224 10211 10202 10197 10190 10182 10178 10172 10166 10160 10152 10145 10138 10130 10121 10113 10107 10105 10101 10090 10083 10079 10072
10508 10506 10504 10502 10500 10497 10495 10493 10490 10487 10484 10481 10478 10475 10472 10469 10466 10463 10460 10458 10455 10452 10449 10445 10441 10437 10433 10428 10424 10419 10414 10409 10404 10398 10394 10390 10385 10380 10375 10370 10364 10358 10351 10345 10338 10331 10323 10315 10308 10302 10296 10288 10279 10271 10263 10255 10249 10243 10236 10230 10225 10217 10206 10196 10190 10185 10176 10169 10164 10157 10150 10145 10136 10129 10123 10115 10106 10097 10087 10084 10082 10075 10069 10066 10060
10495 10493 10492 10490 10488 10486 10483 10481 10478 10475 10472 10469 10466 10464 10461 10458 10455 10452 10449 10447 10444 10440 10437 10434 10430 10426 10422 10417 10412 10406 10402 10397 10392 10386 10381 10377 10372 10366 10361 10356 10350 10343 10337 10332 10325 10317 10309 10301 10294 10287 10280 10273 10265 10257 10249 10241 10235 10229 10220 10213 10208 10200 10190 10183 10178 10173 10165 10159 10153 10145 10137 10130 10120 10112 10106 10098 10090 10081 10070 10063 10059 10052 10048 10046 10043
10482 10480 10479 10477 10475 10473 10471 10468 10466 10463 10460 10458 10455 10452 10450 10447 10443 10441 10438 10435 10432 10428 10425 10421 10418 10414 10410 10405 10399 10394 10388 10383 10378 10373 10368 10363 10358 10353 10347 10342 10336 10329 10324 10318 10311 10302 10294 10286 10279 10272 10265 10258 10251 10243 10234 10226 10218 10211 10204 10196 10191 10185 10177 10171 10167 10160 10154 10148 10141 10133 10126 10118 10108 10100 10093 10086 10078 10068 10058 10050 10044 10036 10029 10026 10024
10468 10467 10465 10464 10462 10460 10458 10455 10453 10451 10448 10446 10443 10440 10437 10434 10431 10429 10426 10423 10420 10416 10412 10409 10405 10401 10396 10392 10387 10381 10375 10370 10364 10359 10354 10349 10344 10339 10333 10327 10321 10315 10310 10303 10295 10288 10280 10273 10266 10258 10250 10243 10235 10226 10217 10209 10201 10195 10189 10182 10176 10171 10164 10159 10154 10146 10139 10133 10126 10119 10112 10104 10096 10088 10080 10073 10066 10057 10047 10039 10032 10024 10017 10011 10006
10455 10453 10452 10451 10449 10447 10445 10443 10441 10439 10436 10434 10431 10428 10425 10422 10419 10416 10413 10410 10407 10403 10399 10395 10391 10387 10382 10378 10373 10367 10361 10356 10351 10346 10341 10335 10329 10324 10319 10312 10306 10300 10295 10288 10281 10274 10267 10260 10252 10243 10234 10225 10217 10209 10201 10194 10187 10182 10176 10170 10164 10158 10150 10144 10139 10132 10124 10117 10110 10103 10096 10088 10081 10075 10067 10059 10053 10045 10037 10029 10020 10013 10007 10001 9993
10441 10440 10439 10437 10436 10434 10432 10430 10428 10426 10424 10421 10418 10416 10413 10410 10406 10403 10400 10396 10392 10389 10385 10380 10376 10372 10367 10363 10359 10353 10348 10343 10337 10332 10327 10321 10316 10310 10305 10299 10292 10286 10281 10274 10267 10259 10252 10244 10235 10227 10219 10211 10204 10196 10189 10182 10176 10169 10163 10156 10150 10144 10136 10129 10123 10116 10110 10103 10095 10088 10082 10075 10067 10061 10055 10047 10040 10034 10028 10020 10011 10004 9998 9992 9984
10427 10427 10425 10424 10422 10420 10418 10417 10414 10412 10410 10407 10405 10402 10399 10396 10392 10388 10385 10382 10377 10374 10369 10365 10361 10357 10353 10349 10344 10339 10335 10329 10324 10319 10314 10308 10302 10296 10290 10283 10277 10270 10264 10257 10250 10243 10236 10229 10221 10214 10207 10200 10193 10186 10178 10171 10164 10156 10149 10142 10135 10129 10122 10114 10107 10101 10094 10088 10080 10072 10066 10059 10052 10046 10040 10034 10028 10023 10017 10010 10002 9995 9988 9982 9976
10413 10413 10411 10409 10408 10406 10404 10402 10399 10397 10395 10393 10390 10387 10384 10381 10377 10373 10370 10365 10361 10358 10354 10350 10346 10343 10339 10335 10330 10325 10321 10316 10310 10304 10298 10292 10286 10279 10273 10267 10260 10255 10249 10242 10236 10230 10223 10216 10209 10201 10194 10187 10180 10173 10165 10158 10151 10144 10137 10129 10122 10115 10108 10100 10093 10086 10079 10073 10066 10058 10050 10043 10036 10029 10023 10017 10012 10007 10001 9995 9990 9984 9977 9970 9966
10399 10397 10396 10394 10392 10390 10388 10386 10384 10382 10379 10377 10374 10371 10368 10365 10362 10358 10354 10350 10346 10342 10339 10335 10332 10328 10324 10320 10315 10310 10305 10299 10293 10287 10281 10275 10269 10263 10258 10252 10246 10240 10234 10228 10222 10216 10209 10202 10194 10187 10180 10173 10166 10159 10152 10145 10138 10131 10124 10117 10109 10101 10094 10086 10078 10071 10064 10057 10051 10044 10037 10029 10022 10015 10007 10001 9995 9990 9984 9979 9974 9969 9963 9958 9954
10382 10381 10379 10377 10375 10373 10371 10369 10367 10365 10363 10360 10358 10355 10353 10350 10346 10343 10339 10336 10332 10328 10324 10320 10316 10312 10307 10302 10297 10291 10286 10280 10275 10270 10265 10260 10254 10248 10243 10237 10231 10224 10218 10212 10207 10201 10194 10188 10180 10173 10166 10160 10153 10146 10139 10132 10125 10119 10112 10104 10097 10088 10080 10071 10063 10055 10048 10041 10035 10029 10023 10016 10009 10002 9995 9987 9981 9975 9969 9964 9959 9955 9950 9945 9941
10367 10366 10364 10362 10360 10358 10356 10353 10351 10349 10347 10345 10343 10340 10338 10335 10332 10328 10325 10321 10317 10313 10308 10304 10299 10294 10289 10283 10278 10273 10268 10263 10259 10254 10249 10244 10239 10234 10228 10222 10216 10209 10203 10197 10192 10187 10181 10174 10167 10160 10153 10146 10139 10132 10125 10118 10111 10105 10098 10091 10083 10075 10067 10058 10050 10042 10034 10026 10020 10014 10008 10002 9995 9989 9982 9975 9968 9961 9956 9952 9947 9943 9939 9934 9930
10353 10352 10350 10349 10346 10344 10342 10339 10337 10335 10333 10330 10328 10326 10323 10320 10317 10313 10309 10305 10300 10295 10290 10286 10281 10276 10271 10267 10262 10258 10253 10249 10244 10240 10235 10230 10225 10219 10214 10207 10201 10195 10188 10183 10178 10173 10166 10159 10152 10145 10138 10130 10124 10117 10110 10103 10096 10089 10082 10075 10068 10060 10052 10043 10035 10028 10020 10013 10006 10000 9994 9987 9981 9975 9968 9961 9954 9947 9942 9938 9933 9930 9927 9922 9919
10336 10335 10335 10333 10331 10329 10327 10325 10322 10320 10318 10316 10313 10310 10307 10303 10299 10295 10290 10285 10281 10277 10273 10269 10264 10260 10256 10252 10248 10244 10239 10235 10230 10226 10221 10216 10211 10205 10199 10193 10187 10181 10175 10170 10164 10158 10151 10144 10137 10130 10122 10115 10108 10101 10094 10087 10079 10071 10064 10057 10049 10042 10034 10025 10017 10010 10003 9996 9990 9984 9977 9971 9965 9959 9952 9946 9940 9933 9927 9922 9918 9914 9911 9908 9904
10320 10319 10318 10316 10315 10313 10311 10308 10306 10304 10301 10298 10295 10291 10287 10282 10278 10274 10270 10267 10264 10261 10257 10253 10250 10246 10242 10238 10234 10230 10225 10221 10216 10211 10206 10201 10196 10191 10185 10179 10173 10167 10161 10155 10149 10143 10136 10129 10121 10114 10106 10099 10092 10084 10077 10071 10063 10055 10047 10039 10032 10025 10017 10008 10000 9992 9986 9980 9974 9967 9961 9955 9949 9943 9936 9930 9925 9919 9914 9909 9904 9898 9894 9891 9887
10304 10303 10301 10299 10297 10295 10292 10290 10287 10285 10282 10279 10275 10271 10268 10264 10261 10258 10255 10252 10249 10246 10242 10239 10235 10232 10228 10225 10220 10216 10211 10206 10202 10196 10191 10186 10181 10176 10171 10165 10159 10152 10146 10140 10134 10127 10120 10113 10105 10098 10090 10083 10076 10069 10062 10056 10049 10041 10033 10024 10016 10009 10002 9994 9986 9978 9972 9966 9960 9953 9947 9940 9934 9928 9922 9916 9911 9906 9901 9896 9892 9886 9881 9876 9873
10287 10285 10283 10280 10278 10275 10273 10271 10269 10266 10264 10262 10259 10256 10253 10250 10247 10244 10241 10239 10236 10232 10228 10225 10222 10218 10214 10210 10206 10201 10196 10191 10186 10181 10176 10171 10165 10161 10156 10150 10143 10137 10131 10125 10118 10112 10105 10097 10090 10083 10075 10069 10062 10055 10048 10042 10035 10027 10019 10010 10002 9994 9987 9980 9973 9965 9958 9953 9946 9940 9933 9927 9921 9915 9910 9904 9899 9894 9889 9884 9879 9874 9869 9865 9861
10272 10270 10267 10266 10264 10261 10260 10258 10256 10254 10252 10249 10246 10243 10240 10237 10235 10232 10228 10225 10222 10218 10214 10211 10207 10204 10200 10195 10191 10186 10181 10176 10171 10166 10160 10155 10150 10145 10141 10135 10128 10121 10115 10109 10102 10095 10088 10082 10075 10067 10060 10054 10047 10040 10033 10027 10021 10013 10005 9997 9988 9980 9973 9966 9959 9952 9945 9939 9933 9927 9920 9914 9908 9903 9898 9892 9887 9883 9878 9872 9867 9862 9858 9854 9850
10258 10256 10254 10253 10251 10250 10248 10246 10244 10242 10239 10236 10233 10230 10227 10224 10222 10218 10215 10211 10207 10203 10199 10195 10191 10187 10183 10179 10175 10170 10165 10160 10155 10150 10145 10140 10135 10129 10124 10119 10113 10106 10099 10092 10085 10078 10071 10065 10059 10052 10045 10038 10031 10025 10018 10012 10005 9998 9991 9983 9975 9967 9960 9953 9946 9939 9932 9926 9920 9914 9907 9900 9895 9890 9885 9881 9876 9871 9866 9860 9855 9849 9845 9842 9839
10243 10241 10239 10238 10236 10235 10233 10231 10229 10227 10224 10221 10218 10216 10213 10210 10206 10203 10199 10195 10191 10188 10184 10179 10175 10171 10167 10162 10158 10154 10149 10144 10139 10134 10129 10124 10119 10113 10107 10102 10096 10090 10083 10076 10069 10062 10055 10049 10043 10036 10030 10023 10016 10009 10003 9997 9990 9983 9976 9968 9961 9954 9947 9940 9932 9925 9919 9913 9906 9900 9894 9887 9882 9877 9873 9868 9863 9858 9853 9848 9843 9838 9834 9830 9827
10227 10225 10223 10222 10220 10219 10217 10215 10213 10210 10208 10205 10202 10199 10196 10192 10189 10185 10182 10178 10175 10171 10167 10163 10159 10154 10150 10146 10142 10138 10133 10128 10122 10117 10112 10107 10101 10096 10090 10085 10079 10073 10066 10060 10053 10047 10040 10034 10027 10021 10015 10008 10001 9994 9988 9982 9975 9968 9961 9953 9947 9940 9933 9926 9919 9912 9906 9899 9893 9887 9880 9874 9869 9864 9860 9855 9850 9845 9840 9836 9832 9827 9823 9819 9816
10210 10209 10208 10206 10205 10203 10201 10199 10196 10193 10190 10187 10184 10181 10178 10174 10170 10167 10164 10161 10158 10154 10150 10147 10143 10138 10134 10130 10125 10121 10116 10111 10105 10100 10095 10089 10084 10079 10073 10068 10062 10056 10050 10044 10037 10031 10025 10018 10012 10005 9999 9992 9986 9979 9972 9966 9959 9952 9945 9938 9932 9926 9919 9912 9905 9899 9893 9886 9880 9874 9867 9861 9856 9852 9848 9843 9838 9833 9828 9824 9820 9816 9812 9808 9805
10195 10194 10192 10190 10189 10186 10183 10180 10177 10174 10172 10169 10167 10164 10161 10158 10154 10151 10148 10145 10141 10137 10133 10130 10125 10121 10116 10112 10107 10103 10098 10092 10087 10082 10077 10072 10067 10061 10055 10050 10044 10039 10033 10027 10021 10015 10009 10002 9996 9989 9983 9976 9969 9963 9956 9950 9943 9936 9930 9923 9917 9911 9905 9898 9891 9885 9879 9873 9867 9861 9856 9850 9845 9841 9837 9832 9826 9822 9817 9814 9810 9806 9802 9798 9794
10179 10177 10175 10173 10171 10168 10165 10163 10160 10157 10155 10153 10150 10147 10145 10142 10138 10135 10131 10128 10124 10120 10116 10112 10107 10103 10098 10094 10089 10085 10080 10075 10070 10065 10060 10054 10049 10043 10038 10033 10027 10022 10016 10011 10005 9999 9992 9986 9980 9973 9967 9960 9954 9947 9941 9934 9928 9921 9915 9909 9903 9897 9891 9884 9877 9872 9866 9861 9855 9849 9844 9839 9834 9830 9826 9821 9815 9810 9806 9803 9799 9796 9792 9788 9783
10161 10159 10158 10156 10153 10151 10149 10146 10143 10141 10139 10136 10133 10130 10127 10123 10120 10117 10113 10110 10106 10102 10098 10094 10089 10085 10080 10076 10072 10068 10063 10057 10052 10047 10042 10037 10032 10026 10021 10016 10010 10005 9999 9994 9988 9982 9976 9970 9963 9957 9951 9945 9938 9932 9926 9919 9913 9907 9901 9895 9889 9883 9877 9870 9864 9858 9853 9848 9842 9837 9832 9828 9823 9819 9814 9809 9804 9800 9796 9792 9789 9786 9782 9778 9773
10144 10142 10140 10138 10135 10133 10131 10128 10125 10123 10121 10118 10115 10112 10109 10105 10102 10099 10096 10092 10089 10085 10081 10076 10072 10067 10062 10058 10054 10050 10045 10040 10035 10030 10025 10020 10015 10009 10004 9999 9994 9988 9983 9977 9971 9965 9959 9953 9947 9941 9935 9929 9923 9917 9911 9905 9898 9892 9886 9881 9876 9870 9864 9857 9851 9845 9840 9835 9830 9825 9820 9816 9812 9808 9803 9798 9793 9789 9786 9782 9779 9776 9773 9768 9764
10127 10125 10123 10120 10118 10115 10113 10110 10108 10106 10103 10100 10098 10094 10091 10088 10085 10082 10079 10075 10071 10067 10064 10059 10055 10050 10045 10040 10036 10032 10028 10024 10019 10014 10008 10003 9998 9993 9987 9982 9976 9971 9966 9960 9954 9948 9942 9936 9930 9924 9919 9913 9907 9902 9896 9891 9885 9878 9872 9867 9862 9857 9851 9845 9838 9833 9827 9822 9817 9813 9809 9805 9801 9798 9793 9787 9782 9779 9775 9772 9769 9766 9763 9759 9755
10111 10108 10106 10104 10101 10099 10096 10094 10092 10089 10086 10083 10080 10077 10074 10071 10067 10064 10061 10057 10053 10050 10046 10042 10038 10034 10028 10023 10019 10014 10010 10006 10001 9996 9991 9986 9981 9976 9970 9964 9959 9954 9949 9943 9937 9931 9925 9920 9914 9908 9903 9898 9892 9887 9882 9877 9871 9865 9858 9853 9848 9843 9838 9832 9826 9820 9815 9810 9805 9801 9797 9794 9790 9787 9782 9777 9773 9769 9766 9762 9759 9756 9753 9749 9746
10094 10092 10090 10087 10085 10083 10080 10078 10075 10072 10069 10066 10063 10060 10057 10053 10050 10046 10043 10039 10036 10032 10029 10025 10021 10017 10012 10008 10003 9998 9993 9989 9984 9979 9974 9969 9964 9959 9953 9948 9942 9937 9932 9926 9920 9914 9908 9903 9897 9892 9887 9883 9878 9873 9868 9863 9857 9851 9845 9839 9834 9830 9825 9820 9815 9809 9803 9797 9793 9789 9786 9783 9780 9776 9771 9767 9763 9760 9756 9753 9749 9746 9743 9740 9737
10078 10076 10073 10071 10068 10066 10064 10061 10058 10055 10052 10049 10046 10043 10039 10036 10032 10029 10025 10022 10019 10015 10012 10008 10004 9999 9995 9991 9987 9982 9978 9973 9967 9962 9957 9952 9947 9942 9937 9931 9926 9921 9915 9910 9904 9898 9892 9886 9880 9875 9871 9867 9863 9859 9854 9849 9843 9837 9831 9826 9821 9816 9812 9808 9803 9798 9792 9786 9781 9777 9774 9772 9769 9766 9761 9757 9754 9750 9747 9744 9740 9736 9733 9731 9728
10061 10059 10056 10054 10052 10049 10047 10044 10041 10038 10036 10033 10030 10026 10023 10019 10016 10012 10009 10005 10002 9998 9994 9990 9986 9982 9979 9975 9970 9966 9961 9956 9951 9946 9941 9936 9931 9926 9920 9915 9910 9904 9899 9893 9888 9882 9876 9870 9865 9860 9855 9851 9848 9845 9840 9836 9830 9824 9818 9813 9808 9803 9799 9795 9791 9786 9781 9775 9770 9766 9763 9761 9759 9756 9752 9747 9744 9741 9739 9735 9731 9728 9724 9722 9720
10045 10042 10040 10038 10036 10033 10031 10029 10026 10023 10020 10017 10014 10010 10007 10003 10000 9996 9992 9988 9985 9981 9977 9973 9969 9965 9961 9957 9953 9949 9944 9939 9934 9929 9924 9920 9915 9909 9904 9899 9893 9888 9882 9877 9872 9867 9861 9855 9850 9845 9841 9836 9833 9830 9827 9823 9818 9812 9806 9801 9795 9790 9787 9783 9779 9775 9770 9765 9760 9756 9752 9750 9748 9746 9742 9738 9735 9732 9730 9727 9723 9719 9716 9713 9711
10030 10027 10025 10023 10021 10018 10016 10014 10011 10008 10005 10001 9998 9994 9991 9987 9983 9980 9975 9971 9967 9963 9959 9956 9952 9948 9943 9939 9935 9931 9926 9921 9916 9911 9907 9902 9897 9892 9888 9882 9877 9871 9866 9861 9856 9851 9846 9841 9836 9831 9826 9822 9818 9815 9812 9809 9805 9801 9795 9790 9784 9779 9775 9771 9767 9764 9760 9755 9750 9746 9742 9740 9738 9735 9732 9729 9725 9723 9721 9718 9715 9711 9708 9705 9703
10014 10012 10010 10008 10005 10003 10000 9998 9995 9992 9988 9985 9982 9978 9974 9971 9967 9963 9959 9954 9950 9947 9943 9938 9934 9929 9925 9921 9917 9912 9908 9903 9898 9893 9888 9884 9879 9875 9871 9866 9861 9856 9851 9845 9840 9836 9832 9827 9822 9817 9812 9808 9804 9801 9797 9795 9792 9788 9784 9778 9773 9767 9763 9759 9756 9753 9749 9745 9741 9736 9732 9730 9728 9726 9723 9719 9716 9714 9712 9709 9707 9704 9700 9697 9695
9998 9996 9994 9992 9989 9986 9983 9980 9977 9974 9971 9968 9964 9961 9957 9954 9950 9946 9942 9938 9934 9930 9926 9921 9916 9912 9908 9903 9899 9895 9890 9884 9879 9874 9870 9866 9862 9858 9854 9850 9845 9840 9835 9830 9825 9821 9817 9813 9808 9803 9799 9795 9791 9787 9783 9780 9777 9774 9771 9767 9762 9757 9752 9749 9745 9742 9738 9735 9731 9727 9723 9720 9718 9716 9713 9710 9707 9705 9703 9701 9699 9696 9693 9690 9687